Flag for Brazil Weather past 2 weeks in Teresina, Piauí, Brazil

Now
79 °F

Passing clouds.


Feels Like: 82 °F
Forecast: 78 / 96 °F
Wind: No wind

Location: Teresina Aeroporto

Current Time: Oct 23, 2014 at 5:57:28 AM

Latest Report: Oct 23, 2014 at 5:00 AM


Visibility: N/A

Pressure: 29.89 "Hg

Humidity: 79%

Dew point: 72 °F

Location of TeresinaLocation

Historic Weather in Teresina — Graph

°F

Teresina temperature yesterday

Maximum temperature yesterday: 93 °F (at 4:00 PM)
Minimum temperature yesterday: 73 °F (at 3:00 AM)
Average temperature yesterday: 83 °F

Past Weeks' High & Low Weather Summary

 TemperatureHumidityPressure
High104 °F (Oct 9, 3:00 PM)100% (Oct 22, 1:00 AM)29.98 "Hg (Oct 22, 1:00 AM)
Low73 °F (Oct 22, 3:00 AM)16% (Oct 14, 4:00 PM)29.65 "Hg (Oct 11, 4:00 PM)
Average90 °F51%29.83 "Hg
* Reported Oct 8 5:00 AM — Oct 23 5:00 AM, Teresina, Weather by CustomWeather, © 2014

Note: Actual official high and low records may vary slightly from our data, if they occured in-between our weather recording intervals... More about our weather records

Advertising

Teresina weather history for previous 24 hours

 ConditionsComfort  
Time TempWeatherWind HumidityBarometerVisibility
5:00 AM
Oct 23
79 °FPassing clouds.No wind79%29.89 "HgN/A
4:00 AM79 °FPassing clouds.No wind79%29.86 "HgN/A
3:00 AM79 °FPassing clouds.2 mph84%29.86 "HgN/A
2:00 AM79 °FClear.2 mph84%29.86 "Hg10 mi
1:00 AM81 °FClear.3 mph79%29.89 "Hg10 mi
12:00 AM81 °FClear.7 mph79%29.92 "Hg10 mi
11:00 PM
Oct 22
82 °FClear.5 mph79%29.92 "Hg10 mi
10:00 PM84 °FClear.No wind74%29.86 "Hg10 mi
9:00 PM84 °FClear.No wind74%29.86 "Hg10 mi
8:00 PM86 °FClear.No wind70%29.83 "Hg10 mi
7:00 PM86 °FClear.3 mph70%29.83 "Hg10 mi
6:00 PM90 °FSunny.No wind55%29.77 "Hg10 mi
5:00 PM93 °FSunny.No wind47%29.77 "Hg10 mi
4:00 PM93 °FScattered clouds.2 mph47%29.77 "HgN/A
3:00 PM91 °FPartly sunny.5 mph52%29.80 "HgN/A
2:00 PM91 °FPartly sunny.6 mph52%29.80 "HgN/A
1:00 PM88 °FSunny.3 mph62%29.86 "Hg10 mi
12:00 PM88 °FBroken clouds.7 mph62%29.89 "HgN/A
11:00 AM86 °FPartly sunny.3 mph66%29.92 "HgN/A
10:00 AM84 °FPartly sunny.3 mph70%29.95 "HgN/A
9:00 AM82 °FPartly sunny.3 mph79%29.95 "HgN/A
8:00 AM79 °FPartly sunny.1 mph89%29.95 "HgN/A
7:00 AM77 °FMore clouds than sun.No wind89%29.92 "HgN/A
6:00 AM75 °FMostly cloudy.No wind94%29.89 "HgN/A
5:00 AM73 °FOvercast.No wind100%29.86 "HgN/A
Weather by CustomWeather, © 2014

See weather overviewHow to use our weather pages